TVF35FJ LFML-LFPO

Flight info

Callsign TVF35FJ
Flight time 1h 3m
Altitude 34000
Route ETREK DCT MADOT DCT MOPEM DCT PIBAT
Aircraft A21N/M-SDE2E3FGHIRWXY/LB1G1

Departure

Time 2026-05-07 18:38
Airport Marseille Provence Airport (LFML)

Arrival

Time 2026-05-07 19:42
Airport Paris-Orly Airport (LFPO)
Time Latitude Longitude Altitude Speed Heading
2026-05-07 17:54 43.43863 5.22304 43 ft 0 kts 74°
2026-05-07 18:26 43.43860 5.22291 43 ft 4 kts 74°
2026-05-07 18:26 43.43852 5.22256 39 ft 4 kts 74°
2026-05-07 18:26 43.43846 5.22225 40 ft 4 kts 60°
2026-05-07 18:26 43.43831 5.22210 38 ft 4 kts 348°
2026-05-07 18:27 43.43806 5.22223 40 ft 4 kts 337°
2026-05-07 18:27 43.43796 5.22229 40 ft 0 kts 342°
2026-05-07 18:31 43.43796 5.22228 40 ft 1 kts 342°
2026-05-07 18:31 43.43809 5.22223 40 ft 3 kts 342°
2026-05-07 18:32 43.43830 5.22214 38 ft 6 kts 342°
2026-05-07 18:32 43.43865 5.22161 43 ft 10 kts 284°
2026-05-07 18:32 43.43821 5.22078 43 ft 13 kts 221°
2026-05-07 18:32 43.43803 5.21957 41 ft 17 kts 310°
2026-05-07 18:33 43.43887 5.21838 43 ft 18 kts 314°
2026-05-07 18:33 43.43971 5.21713 43 ft 17 kts 296°
2026-05-07 18:33 43.43934 5.21568 43 ft 18 kts 243°
2026-05-07 18:33 43.43971 5.21417 43 ft 19 kts 315°
2026-05-07 18:34 43.44066 5.21281 42 ft 20 kts 313°
2026-05-07 18:34 43.44166 5.21137 42 ft 21 kts 313°
2026-05-07 18:34 43.44269 5.20982 42 ft 22 kts 306°
2026-05-07 18:34 43.44354 5.20799 42 ft 24 kts 312°
2026-05-07 18:35 43.44472 5.20634 43 ft 25 kts 314°
2026-05-07 18:35 43.44594 5.20460 43 ft 26 kts 314°
2026-05-07 18:35 43.44714 5.20288 42 ft 25 kts 314°
2026-05-07 18:35 43.44837 5.20113 42 ft 26 kts 314°
2026-05-07 18:36 43.44938 5.19969 42 ft 13 kts 314°
2026-05-07 18:36 43.44993 5.19876 42 ft 15 kts 290°
2026-05-07 18:36 43.44998 5.19828 42 ft 0 kts 258°
2026-05-07 18:36 43.44996 5.19823 42 ft 3 kts 239°
2026-05-07 18:37 43.44948 5.19786 39 ft 10 kts 208°
2026-05-07 18:37 43.44878 5.19786 38 ft 11 kts 142°
2026-05-07 18:37 43.44817 5.19872 39 ft 20 kts 135°
2026-05-07 18:37 43.44557 5.20241 42 ft 86 kts 133°
2026-05-07 18:38 43.44004 5.21029 41 ft 141 kts 134°
2026-05-07 18:38 43.43224 5.22142 129 ft 171 kts 135°
2026-05-07 18:38 43.42421 5.23331 595 ft 173 kts 133°
2026-05-07 18:38 43.41905 5.24785 1077 ft 172 kts 91°
2026-05-07 18:39 43.42365 5.26249 1466 ft 181 kts 44°
2026-05-07 18:39 43.43410 5.27366 1808 ft 200 kts 34°
2026-05-07 18:39 43.44655 5.28409 2254 ft 220 kts 30°
2026-05-07 18:39 43.46172 5.29143 2652 ft 245 kts
2026-05-07 18:40 43.47943 5.28979 3041 ft 268 kts 343°
2026-05-07 18:40 43.49653 5.27974 3910 ft 268 kts 335°
2026-05-07 18:40 43.51370 5.26896 4697 ft 274 kts 338°
2026-05-07 18:40 43.53158 5.25942 5537 ft 276 kts 340°
2026-05-07 18:41 43.54951 5.25027 6318 ft 281 kts 340°
2026-05-07 18:41 43.56810 5.24123 7081 ft 284 kts 342°
2026-05-07 18:41 43.58695 5.23271 7891 ft 287 kts 342°
2026-05-07 18:41 43.60601 5.22420 8707 ft 289 kts 341°
2026-05-07 18:42 43.62526 5.21555 9552 ft 292 kts 341°
2026-05-07 18:42 43.64478 5.20673 10249 ft 300 kts 341°
2026-05-07 18:42 43.66523 5.19734 10601 ft 320 kts 340°
2026-05-07 18:42 43.68707 5.18738 10905 ft 340 kts 340°
2026-05-07 18:43 43.70991 5.17698 11172 ft 359 kts 340°
2026-05-07 18:43 43.73418 5.16564 11432 ft 377 kts 340°
2026-05-07 18:43 43.75949 5.15346 11680 ft 392 kts 340°
2026-05-07 18:43 43.78571 5.14110 12035 ft 402 kts 340°
2026-05-07 18:44 43.81233 5.12862 12571 ft 405 kts 340°
2026-05-07 18:44 43.83912 5.11605 13132 ft 407 kts 340°
2026-05-07 18:44 43.86618 5.10335 13660 ft 410 kts 340°
2026-05-07 18:44 43.89388 5.09284 14121 ft 414 kts 348°
2026-05-07 18:45 43.92202 5.08622 14550 ft 417 kts 349°
2026-05-07 18:45 43.95078 5.07978 14982 ft 419 kts 349°
2026-05-07 18:45 43.97973 5.07330 15417 ft 422 kts 349°
2026-05-07 18:45 44.00879 5.06667 15837 ft 425 kts 349°
2026-05-07 18:46 44.03590 5.06044 16204 ft 427 kts 349°
2026-05-07 18:46 44.06553 5.05365 16591 ft 429 kts 349°
2026-05-07 18:46 44.09512 5.04685 16968 ft 432 kts 349°
2026-05-07 18:46 44.12449 5.04010 17335 ft 435 kts 349°
2026-05-07 18:47 44.15444 5.03324 17687 ft 437 kts 349°
2026-05-07 18:47 44.18454 5.02633 18041 ft 440 kts 349°
2026-05-07 18:47 44.21489 5.01935 18370 ft 443 kts 349°
2026-05-07 18:47 44.24536 5.01230 18684 ft 445 kts 349°
2026-05-07 18:48 44.27593 5.00523 19005 ft 446 kts 349°
2026-05-07 18:48 44.30671 4.99811 19303 ft 448 kts 349°
2026-05-07 18:48 44.33756 4.99098 19621 ft 450 kts 349°
2026-05-07 18:48 44.36849 4.98382 19939 ft 452 kts 349°
2026-05-07 18:49 44.39967 4.97662 20257 ft 454 kts 349°
2026-05-07 18:49 44.43101 4.96930 20583 ft 456 kts 349°
2026-05-07 18:49 44.46198 4.96206 20902 ft 458 kts 349°
2026-05-07 18:49 44.49352 4.95472 21230 ft 460 kts 349°
2026-05-07 18:50 44.52529 4.94735 21610 ft 462 kts 349°
2026-05-07 18:50 44.55699 4.93990 21983 ft 463 kts 348°
2026-05-07 18:50 44.57994 4.93452 22237 ft 465 kts 348°
2026-05-07 18:50 44.61255 4.92694 22610 ft 467 kts 348°
2026-05-07 18:51 44.64467 4.91945 22957 ft 469 kts 348°
2026-05-07 18:51 44.67692 4.91186 23314 ft 471 kts 348°
2026-05-07 18:51 44.70935 4.90409 23636 ft 473 kts 347°
2026-05-07 18:51 44.74093 4.89178 23920 ft 472 kts 338°
2026-05-07 18:52 44.77146 4.87502 24202 ft 473 kts 336°
2026-05-07 18:52 44.80220 4.85760 24536 ft 474 kts 335°
2026-05-07 18:52 44.83272 4.84022 24920 ft 473 kts 335°
2026-05-07 18:52 44.86280 4.82317 25297 ft 472 kts 335°
2026-05-07 18:53 44.89336 4.80587 25654 ft 471 kts 335°
2026-05-07 18:53 44.92374 4.78875 26036 ft 471 kts 335°
2026-05-07 18:53 44.95412 4.77159 26425 ft 469 kts 335°
2026-05-07 18:53 44.98440 4.75442 26816 ft 468 kts 335°
2026-05-07 18:54 45.01471 4.73720 27187 ft 468 kts 334°
2026-05-07 18:54 45.04479 4.72010 27561 ft 467 kts 334°
2026-05-07 18:54 45.07502 4.70295 27936 ft 466 kts 334°
2026-05-07 18:54 45.10514 4.68582 28290 ft 466 kts 334°
2026-05-07 18:55 45.13517 4.66872 28673 ft 465 kts 334°
2026-05-07 18:55 45.16522 4.65161 29053 ft 464 kts 334°
2026-05-07 18:55 45.19558 4.63753 29417 ft 468 kts 343°
2026-05-07 18:55 45.22773 4.62923 29782 ft 469 kts 347°
2026-05-07 18:56 45.25996 4.62198 30132 ft 469 kts 347°
2026-05-07 18:56 45.29210 4.61483 30423 ft 469 kts 347°
2026-05-07 18:56 45.32432 4.60757 30761 ft 467 kts 347°
2026-05-07 18:56 45.35648 4.60020 31081 ft 466 kts 347°
2026-05-07 18:57 45.38840 4.59276 31393 ft 465 kts 347°
2026-05-07 18:57 45.42052 4.58549 31702 ft 465 kts 347°
2026-05-07 18:57 45.45203 4.57820 31996 ft 464 kts 347°
2026-05-07 18:57 45.48396 4.57090 32276 ft 464 kts 346°
2026-05-07 18:58 45.51581 4.56352 32588 ft 463 kts 347°
2026-05-07 18:58 45.54741 4.55623 32878 ft 462 kts 347°
2026-05-07 18:58 45.57929 4.54896 33161 ft 461 kts 347°
2026-05-07 18:58 45.61089 4.54172 33428 ft 460 kts 347°
2026-05-07 18:59 45.64252 4.53441 33675 ft 460 kts 347°
2026-05-07 18:59 45.67405 4.52709 33905 ft 459 kts 347°
2026-05-07 18:59 45.70564 4.51975 34042 ft 459 kts 347°
2026-05-07 19:00 45.76863 4.50524 34035 ft 458 kts 347°
2026-05-07 19:00 45.83162 4.49048 34015 ft 458 kts 346°
2026-05-07 19:01 45.89427 4.47584 34024 ft 458 kts 347°
2026-05-07 19:01 45.95720 4.46115 34012 ft 457 kts 347°
2026-05-07 19:02 46.01992 4.44649 34015 ft 456 kts 347°
2026-05-07 19:02 46.08232 4.43189 34014 ft 456 kts 346°
2026-05-07 19:03 46.14491 4.41701 34011 ft 456 kts 346°
2026-05-07 19:03 46.20755 4.40226 34007 ft 456 kts 346°
2026-05-07 19:04 46.27027 4.38746 34000 ft 456 kts 346°
2026-05-07 19:04 46.33294 4.37251 34014 ft 456 kts 346°
2026-05-07 19:05 46.39520 4.35771 33996 ft 455 kts 346°
2026-05-07 19:05 46.45786 4.34278 33994 ft 456 kts 346°
2026-05-07 19:06 46.52038 4.32776 34001 ft 455 kts 346°
2026-05-07 19:06 46.61410 4.30534 34006 ft 455 kts 346°
2026-05-07 19:07 46.67654 4.29026 34010 ft 455 kts 346°
2026-05-07 19:07 46.73908 4.27544 34014 ft 455 kts 346°
2026-05-07 19:08 46.80140 4.25940 34010 ft 452 kts 341°
2026-05-07 19:08 46.85993 4.22806 34011 ft 447 kts 333°
2026-05-07 19:09 46.91727 4.19413 34024 ft 446 kts 333°
2026-05-07 19:09 46.97498 4.16028 34020 ft 446 kts 333°
2026-05-07 19:10 47.03245 4.12613 34017 ft 446 kts 333°
2026-05-07 19:10 47.09014 4.09230 34025 ft 446 kts 333°
2026-05-07 19:11 47.14793 4.05861 34022 ft 446 kts 333°
2026-05-07 19:11 47.17652 4.04187 33635 ft 439 kts 333°
2026-05-07 19:11 47.20467 4.02524 32563 ft 445 kts 334°
2026-05-07 19:12 47.23367 4.00804 31490 ft 453 kts 334°
2026-05-07 19:12 47.26338 3.99041 30684 ft 455 kts 334°
2026-05-07 19:12 47.29240 3.97319 29931 ft 456 kts 335°
2026-05-07 19:12 47.32183 3.95568 29056 ft 456 kts 335°
2026-05-07 19:13 47.35126 3.93821 28240 ft 457 kts 335°
2026-05-07 19:13 47.38084 3.92059 27460 ft 456 kts 335°
2026-05-07 19:13 47.41021 3.90309 26624 ft 456 kts 335°
2026-05-07 19:13 47.43975 3.88548 25779 ft 457 kts 335°
2026-05-07 19:14 47.46921 3.86785 24916 ft 458 kts 335°
2026-05-07 19:14 47.49885 3.85009 24138 ft 457 kts 336°
2026-05-07 19:14 47.52825 3.83249 23403 ft 455 kts 336°
2026-05-07 19:14 47.55708 3.81521 22624 ft 452 kts 336°
2026-05-07 19:15 47.58625 3.79770 22062 ft 454 kts 336°
2026-05-07 19:15 47.61557 3.78005 21693 ft 454 kts 336°
2026-05-07 19:15 47.64468 3.76247 21213 ft 447 kts 336°
2026-05-07 19:15 47.67328 3.74519 20643 ft 440 kts 336°
2026-05-07 19:16 47.70144 3.72821 20006 ft 434 kts 336°
2026-05-07 19:16 47.72931 3.71141 19412 ft 429 kts 336°
2026-05-07 19:16 47.75683 3.69478 18844 ft 424 kts 336°
2026-05-07 19:16 47.78412 3.67823 18224 ft 421 kts 336°
2026-05-07 19:17 47.81120 3.66182 17526 ft 419 kts 336°
2026-05-07 19:17 47.83773 3.64573 16947 ft 415 kts 336°
2026-05-07 19:17 47.86432 3.62958 16426 ft 409 kts 336°
2026-05-07 19:17 47.89050 3.61359 15929 ft 404 kts 336°
2026-05-07 19:18 47.91631 3.59765 15437 ft 399 kts 336°
2026-05-07 19:18 47.94191 3.58184 14924 ft 396 kts 336°
2026-05-07 19:18 47.95854 3.57090 14599 ft 391 kts 331°
2026-05-07 19:18 47.98004 3.54743 14254 ft 375 kts 314°
2026-05-07 19:19 47.99790 3.52005 14021 ft 360 kts 312°
2026-05-07 19:19 48.01493 3.49349 13810 ft 347 kts 312°
2026-05-07 19:19 48.03138 3.46800 13506 ft 337 kts 313°
2026-05-07 19:19 48.04770 3.44290 12943 ft 335 kts 313°
2026-05-07 19:20 48.06395 3.41806 12386 ft 334 kts 313°
2026-05-07 19:20 48.08013 3.39339 11961 ft 329 kts 313°
2026-05-07 19:20 48.09589 3.36929 11738 ft 318 kts 312°
2026-05-07 19:20 48.11109 3.34605 11565 ft 306 kts 312°
2026-05-07 19:21 48.12569 3.32369 11410 ft 295 kts 312°
2026-05-07 19:21 48.13982 3.30197 11172 ft 287 kts 312°
2026-05-07 19:21 48.15343 3.28104 10909 ft 281 kts 312°
2026-05-07 19:21 48.16694 3.26026 10662 ft 276 kts 312°
2026-05-07 19:22 48.18027 3.23975 10439 ft 272 kts 312°
2026-05-07 19:22 48.19336 3.21960 10237 ft 267 kts 311°
2026-05-07 19:22 48.20646 3.19941 10051 ft 279 kts 311°
2026-05-07 19:22 48.22014 3.17829 10011 ft 283 kts 312°
2026-05-07 19:23 48.23389 3.15715 10022 ft 283 kts 312°
2026-05-07 19:23 48.24768 3.13591 10025 ft 283 kts 312°
2026-05-07 19:23 48.26126 3.11496 10033 ft 283 kts 312°
2026-05-07 19:23 48.27502 3.09376 10038 ft 283 kts 311°
2026-05-07 19:24 48.28873 3.07256 10033 ft 283 kts 312°
2026-05-07 19:24 48.30250 3.05131 10034 ft 283 kts 312°
2026-05-07 19:24 48.31624 3.03009 10034 ft 284 kts 312°
2026-05-07 19:24 48.32999 3.00881 10037 ft 283 kts 311°
2026-05-07 19:25 48.34375 2.98747 10041 ft 284 kts 311°
2026-05-07 19:25 48.35743 2.96601 10040 ft 284 kts 308°
2026-05-07 19:25 48.36697 2.94044 10035 ft 280 kts 287°
2026-05-07 19:25 48.37232 2.91240 10038 ft 279 kts 283°
2026-05-07 19:26 48.37717 2.88411 10040 ft 279 kts 283°
2026-05-07 19:26 48.38203 2.85584 10040 ft 279 kts 283°
2026-05-07 19:26 48.38689 2.82754 10037 ft 279 kts 283°
2026-05-07 19:26 48.39174 2.79931 10040 ft 279 kts 283°
2026-05-07 19:27 48.39658 2.77111 10034 ft 279 kts 283°
2026-05-07 19:27 48.40137 2.74314 10033 ft 279 kts 283°
2026-05-07 19:27 48.40622 2.71483 10046 ft 279 kts 283°
2026-05-07 19:27 48.41099 2.68674 10041 ft 277 kts 283°
2026-05-07 19:28 48.41576 2.65857 10037 ft 277 kts 283°
2026-05-07 19:28 48.42053 2.63047 10035 ft 277 kts 283°
2026-05-07 19:28 48.42530 2.60234 10032 ft 277 kts 283°
2026-05-07 19:28 48.43008 2.57411 10036 ft 277 kts 283°
2026-05-07 19:29 48.43486 2.54604 10031 ft 277 kts 283°
2026-05-07 19:29 48.43968 2.51787 10035 ft 277 kts 283°
2026-05-07 19:29 48.44449 2.48978 10035 ft 277 kts 283°
2026-05-07 19:29 48.44929 2.46162 10036 ft 277 kts 283°
2026-05-07 19:30 48.45409 2.43350 10032 ft 277 kts 283°
2026-05-07 19:30 48.45890 2.40537 10029 ft 277 kts 283°
2026-05-07 19:30 48.46370 2.37721 10032 ft 277 kts 283°
2026-05-07 19:30 48.46850 2.34899 10033 ft 277 kts 283°
2026-05-07 19:31 48.47329 2.32085 10028 ft 277 kts 283°
2026-05-07 19:31 48.47802 2.29302 9794 ft 271 kts 283°
2026-05-07 19:31 48.48267 2.26550 9220 ft 271 kts 283°
2026-05-07 19:31 48.48725 2.23786 8649 ft 271 kts 283°
2026-05-07 19:32 48.49167 2.21055 8120 ft 270 kts 283°
2026-05-07 19:32 48.49601 2.18311 7592 ft 269 kts 283°
2026-05-07 19:32 48.50019 2.15570 7083 ft 267 kts 282°
2026-05-07 19:32 48.50402 2.12830 6582 ft 268 kts 282°
2026-05-07 19:33 48.50771 2.10068 6076 ft 270 kts 282°
2026-05-07 19:33 48.51141 2.07291 5550 ft 270 kts 282°
2026-05-07 19:33 48.51514 2.04524 5080 ft 269 kts 282°
2026-05-07 19:33 48.52248 2.01976 4693 ft 264 kts 307°
2026-05-07 19:34 48.53624 2.00218 4389 ft 258 kts 333°
2026-05-07 19:34 48.55264 1.99211 4129 ft 252 kts 341°
2026-05-07 19:34 48.56895 1.98350 3961 ft 242 kts 341°
2026-05-07 19:34 48.58444 1.97539 3933 ft 229 kts 342°
2026-05-07 19:35 48.59885 1.96781 3934 ft 213 kts 341°
2026-05-07 19:35 48.61276 1.96051 3952 ft 212 kts 342°
2026-05-07 19:35 48.62689 1.95415 3968 ft 209 kts 343°
2026-05-07 19:35 48.64096 1.95178 3619 ft 205 kts 13°
2026-05-07 19:36 48.65350 1.96119 3182 ft 204 kts 46°
2026-05-07 19:36 48.66043 1.97950 2739 ft 203 kts 79°
2026-05-07 19:36 48.66005 2.00064 2372 ft 201 kts 99°
2026-05-07 19:36 48.65730 2.02123 2094 ft 199 kts 102°
2026-05-07 19:37 48.65445 2.04149 1966 ft 199 kts 102°
2026-05-07 19:37 48.65152 2.06203 2022 ft 199 kts 102°
2026-05-07 19:37 48.64862 2.08251 2037 ft 200 kts 102°
2026-05-07 19:37 48.64743 2.10331 2016 ft 199 kts 83°
2026-05-07 19:38 48.65118 2.12296 1996 ft 187 kts 68°
2026-05-07 19:38 48.65700 2.13991 1979 ft 180 kts 60°
2026-05-07 19:38 48.66306 2.15647 1982 ft 179 kts 62°
2026-05-07 19:38 48.66897 2.17299 1986 ft 179 kts 62°
2026-05-07 19:39 48.67481 2.18944 2003 ft 170 kts 63°
2026-05-07 19:39 48.68001 2.20411 1990 ft 147 kts 63°
2026-05-07 19:39 48.68451 2.21683 1877 ft 134 kts 63°
2026-05-07 19:39 48.68888 2.22914 1685 ft 134 kts 62°
2026-05-07 19:40 48.69326 2.24165 1531 ft 134 kts 62°
2026-05-07 19:40 48.69767 2.25394 1315 ft 133 kts 62°
2026-05-07 19:40 48.70207 2.26635 1112 ft 133 kts 63°
2026-05-07 19:40 48.70645 2.27873 946 ft 133 kts 62°
2026-05-07 19:41 48.71084 2.29103 765 ft 133 kts 63°
2026-05-07 19:41 48.71518 2.30340 575 ft 133 kts 62°
2026-05-07 19:41 48.71951 2.31552 388 ft 132 kts 63°
2026-05-07 19:41 48.72371 2.32735 308 ft 115 kts 63°
2026-05-07 19:42 48.72615 2.33430 304 ft 51 kts 61°
2026-05-07 19:42 48.72738 2.33811 307 ft 30 kts 70°
2026-05-07 19:42 48.72778 2.34118 307 ft 28 kts 82°
2026-05-07 19:42 48.72802 2.34370 304 ft 24 kts 82°
2026-05-07 19:43 48.72826 2.34632 302 ft 25 kts 82°
2026-05-07 19:43 48.72845 2.34823 303 ft 18 kts 81°
2026-05-07 19:43 48.72865 2.35018 306 ft 20 kts 89°
2026-05-07 19:43 48.72803 2.35202 305 ft 21 kts 141°
2026-05-07 19:44 48.72679 2.35265 303 ft 17 kts 165°
2026-05-07 19:44 48.72596 2.35298 304 ft 13 kts 165°
2026-05-07 19:44 48.72504 2.35336 304 ft 15 kts 165°
2026-05-07 19:44 48.72401 2.35386 306 ft 16 kts 152°
2026-05-07 19:45 48.72316 2.35508 304 ft 18 kts 114°
2026-05-07 19:45 48.72318 2.35686 304 ft 17 kts 72°
2026-05-07 19:45 48.72353 2.35848 303 ft 17 kts 72°
2026-05-07 19:45 48.72386 2.36027 304 ft 19 kts 74°
2026-05-07 19:46 48.72422 2.36218 305 ft 14 kts 74°
2026-05-07 19:46 48.72443 2.36336 302 ft 12 kts 75°
2026-05-07 19:46 48.72454 2.36402 302 ft 0 kts 76°
2026-05-07 19:46 48.72451 2.36432 302 ft 7 kts 131°
2026-05-07 19:47 48.72412 2.36417 303 ft 6 kts 199°
2026-05-07 19:47 48.72378 2.36399 303 ft 0 kts 199°